Temperature
19 19 19 19 19 19 19 19 19 19 19 19 19 19 19 19 19 19 19 19 19 19 19 19 19 19 19 19 18 18 18 18 18 18 18 18 18 18 18 18 18 18 18
20 19 19 19 19 19 19 19 19 19 19 19 19 19 19 19 19 19 19 19 19 19 19 19 19 18 18 18 18 18 18 18 18 18 18 18 18 18 18 18 18 18 17
20 20 19 19 19 19 19 19 19 19 19 19 19 19 19 19 19 19 19 19 19 19 19 19 18 18 18 18 18 18 18 18 18 18 18 18 18 18 18 18 17 17 17
20 20 19 19 19 19 19 19 19 19 19 19 19 19 19 19 19 19 19 19 19 19 19 18 18 18 18 18 18 18 18 18 18 18 18 18 18 18 18 18 17 17 17
20 20 19 19 19 19 19 19 19 19 19 19 19 19 19 19 19 19 19 19 19 19 18 18 18 18 18 18 18 18 18 18 18 18 18 18 18 18 18 17 17 17 17
20 20 19 19 19 19 19 19 19 19 19 19 19 19 19 19 19 19 19 19 19 18 18 18 18 18 18 18 18 18 18 18 18 18 18 18 18 17 17 17 17 17 17
20 19 19 19 19 19 19 19 19 19 19 19 19 19 19 19 19 19 19 19 19 19 18 18 18 18 18 18 18 18 18 17 17 17 18 18 17 17 17 17 17 17 17
20 19 19 19 19 19 19 19 19 19 19 19 19 19 19 19 19 19 19 19 19 18 18 18 18 18 18 18 18 18 17 17 17 17 18 18 17 17 17 17 17 17 17
20 19 19 19 19 19 19 19 19 19 19 19 19 19 19 19 19 19 19 19 19 18 18 18 18 18 18 18 18 18 17 17 17 18 18 18 17 17 17 17 17 17 17
19 19 19 19 19 19 19 19 19 19 19 19 19 19 19 19 19 19 19 18 18 18 18 18 18 18 18 18 18 18 17 17 17 17 17 17 17 17 17 17 17 17 17
19 19 19 19 19 19 19 19 19 19 19 19 19 19 19 19 19 19 18 18 18 18 18 18 18 18 18 18 18 17 17 17 17 17 17 17 17 17 17 17 17 17 17
19 19 19 19 19 19 19 19 19 19 19 19 19 19 19 19 19 19 18 18 18 18 18 18 18 18 18 18 18 18 18 18 17 17 17 17 17 17 17 17 17 17 17
20 19 19 19 19 19 19 19 19 19 19 19 19 19 19 19 19 18 18 18 18 18 18 18 18 18 18 18 18 18 18 17 17 17 17 17 17 17 17 17 17 17 17
20 20 20 19 19 19 19 19 19 19 19 19 19 19 19 19 19 19 19 18 18 18 18 18 18 18 18 17 17 17 17 17 17 17 17 17 17 17 17 17 17 17 17
20 20 20 20 19 19 19 19 19 19 19 19 19 19 19 19 19 19 19 19 18 18 18 18 18 18 18 17 17 17 17 17 17 17 17 17 17 17 17 17 17 17 17
20 20 20 20 20 19 19 19 19 19 19 19 19 19 19 19 19 19 19 19 18 18 18 18 18 18 18 18 18 17 17 17 17 17 17 17 17 17 17 17 17 17 17
21 20 20 20 20 20 19 19 19 19 19 19 19 19 19 19 19 19 19 19 18 18 18 18 18 18 18 18 18 17 17 17 17 17 17 17 17 17 17 17 17 17 17
21 20 20 20 20 20 20 19 19 19 19 19 19 19 19 19 19 19 19 18 18 18 18 18 18 18 18 18 18 18 17 17 17 17 17 17 17 17 17 17 17 17 16
21 21 20 20 20 20 20 19 19 19 19 19 19 19 19 19 19 19 19 18 18 18 18 18 18 18 18 18 18 18 17 17 17 17 17 17 17 17 17 17 17 17 17
21 21 20 20 20 20 20 20 19 19 19 19 19 19 19 19 19 19 18 18 18 18 18 18 18 18 18 18 18 18 18 18 18 18 18 18 17 17 17 17 17 17 17
21 21 21 20 20 20 20 20 20 19 19 19 19 19 19 19 19 19 18 18 18 18 18 18 18 18 18 17 18 18 18 18 18 18 18 18 17 17 17 17 17 17 17
21 21 21 20 20 20 20 20 19 19 19 19 19 19 19 19 18 18 18 18 18 18 18 18 18 18 18 17 17 17 17 18 18 18 18 18 18 17 17 17 17 17 17
21 21 21 20 20 20 20 20 19 19 19 19 19 19 19 19 18 18 18 18 18 18 18 18 18 18 17 17 17 17 17 17 17 18 18 18 18 17 17 17 17 17 17
22 21 21 20 20 20 20 20 19 19 19 19 19 19 19 18 18 18 18 18 18 18 18 18 18 17 17 17 17 17 17 17 17 17 17 17 17 17 17 17 17 17 17
22 21 21 20 20 20 20 19 19 19 19 19 19 19 19 18 18 18 18 18 18 18 18 17 17 17 17 17 17 17 17 17 17 17 17 17 17 17 17 17 17 17 17
21 21 21 21 20 20 20 19 19 19 19 19 19 19 19 18 18 18 18 18 18 18 18 17 17 17 17 17 17 17 17 17 17 17 16 17 17 17 17 17 17 17 17
Wind_Speed
0 1 3 6 7 8 9 9 8 10 12 14 15 15 14 14 13 13 14 14 14 13 14 14 13 13 13 12 13 13 13 13 13 12 11 11 11 11 11 11 10 9 11
2 3 5 7 8 9 9 9 10 11 13 14 14 14 13 13 13 12 13 13 14 13 13 13 13 13 13 12 13 13 12 12 12 11 10 10 10 11 11 10 9 8 10
4 4 6 7 8 9 9 10 11 13 13 14 13 12 12 12 12 12 12 12 13 13 13 12 12 12 12 12 12 12 12 12 11 10 9 8 9 9 10 10 9 9 9
4 4 5 8 8 9 9 10 11 12 12 12 12 11 11 11 10 11 11 12 12 12 12 12 12 12 12 12 11 12 11 11 10 9 7 6 7 8 8 9 8 8 8
4 3 5 8 8 9 9 10 10 11 11 11 10 10 10 9 9 10 10 11 11 11 11 12 12 12 12 11 11 10 10 10 9 7 6 6 6 7 7 8 8 8 8
3 3 5 8 8 8 9 9 10 10 10 9 9 8 8 9 9 9 9 10 10 10 10 10 11 11 11 11 10 9 9 8 7 6 5 5 5 7 7 8 8 7 8
3 3 4 8 8 8 8 8 9 9 9 9 8 8 8 8 8 8 8 9 9 9 9 9 9 10 10 10 9 8 7 7 6 5 4 4 5 7 7 7 7 7 7
4 3 4 6 8 8 7 8 8 8 8 7 7 7 8 8 8 7 8 9 9 9 9 9 9 9 9 9 8 8 6 5 5 4 3 3 5 7 7 6 6 6 7
4 3 2 3 5 6 7 7 7 7 7 7 7 7 8 8 7 7 7 8 8 8 8 8 8 9 9 8 8 7 6 5 4 3 3 3 4 6 7 6 6 6 6
3 3 2 2 3 3 4 5 5 6 6 6 6 7 7 7 6 6 7 7 7 7 7 7 7 8 7 7 6 6 6 5 3 3 2 3 4 5 6 5 5 5 6
3 2 2 2 2 2 2 3 3 4 5 5 5 5 5 4 4 4 6 7 7 7 7 7 7 7 6 5 5 5 4 3 3 2 3 4 5 5 5 5 4 5 5
3 2 2 2 2 2 2 2 2 2 3 4 3 3 4 4 4 4 5 6 6 6 6 6 6 5 4 3 3 3 3 3 2 2 3 4 5 5 4 5 5 5 6
3 3 3 2 2 2 1 1 2 2 3 3 3 3 4 4 3 3 3 3 4 4 4 4 4 3 3 2 2 2 3 3 2 2 3 4 5 5 4 5 5 6 6
3 3 3 2 2 2 2 1 1 1 1 2 2 3 3 2 2 2 1 2 2 2 2 2 2 2 2 2 2 2 2 2 2 2 3 5 5 5 5 5 6 6 7
4 3 3 3 3 3 2 2 2 2 1 2 2 3 3 2 2 1 1 1 2 2 2 1 2 2 2 1 1 2 1 2 2 3 4 5 6 6 6 6 6 7 7
4 4 3 3 3 3 3 3 2 2 2 2 2 2 3 3 2 2 1 1 1 1 2 2 1 1 1 0 0 1 2 2 2 3 4 4 5 6 6 6 6 6 7
4 4 4 4 3 4 4 4 3 2 3 2 2 3 3 3 3 2 1 1 1 2 2 2 1 1 1 0 0 1 1 2 2 3 3 3 4 5 6 7 7 7 7
4 4 4 4 4 4 4 3 2 2 3 2 2 3 3 3 4 3 2 1 1 2 2 1 1 1 0 0 1 1 1 1 2 3 4 4 4 4 4 6 7 7 7
5 5 4 4 5 5 4 3 3 2 2 2 2 2 3 3 3 3 2 1 2 2 1 1 1 0 0 0 1 1 1 2 2 3 3 4 4 4 4 4 5 6 7
5 4 4 4 4 5 4 3 3 3 2 2 2 2 2 2 3 3 2 1 2 1 1 1 1 1 0 1 1 2 2 2 2 2 3 2 2 3 3 3 3 5 7
4 4 4 4 4 4 3 3 2 1 1 1 1 1 2 2 3 3 2 1 1 1 1 1 1 1 0 0 1 2 2 1 1 2 2 2 2 3 4 4 4 4 5
5 5 4 4 4 4 3 3 2 2 1 1 0 1 1 2 3 3 2 2 1 1 1 1 1 1 0 1 1 1 2 3 2 1 1 2 2 2 3 4 4 4 5
5 6 5 4 4 3 4 3 3 3 2 1 1 0 0 1 2 2 3 2 2 2 2 2 2 2 1 0 1 2 1 1 2 2 1 2 2 2 2 3 4 4 5
7 5 5 4 4 3 4 4 4 3 2 2 1 1 0 0 1 2 2 2 2 2 2 2 2 2 2 1 1 1 2 2 1 2 2 2 2 2 3 3 3 4 4
6 6 5 5 4 3 3 4 4 3 2 1 1 1 0 0 1 1 2 2 2 2 2 2 2 2 2 2 1 1 1 1 1 2 3 3 3 2 3 3 3 3 4
5 5 6 6 4 3 4 3 4 4 3 2 2 1 1 1 1 1 1 2 2 2 2 2 2 2 2 2 2 2 2 2 2 2 3 3 3 3 2 2 2 3 3
Wind_Direction
54 153 135 114 115 122 122 118 118 122 130 136 137 138 138 137 139 142 143 143 144 144 144 144 143 142 140 140 138 136 136 136 135 136 133 133 134 132 130 128 126 127 133
132 130 127 113 111 115 119 116 115 117 122 129 132 135 137 137 138 141 144 147 148 148 147 148 147 146 143 141 139 137 138 139 140 141 137 137 136 133 132 131 130 132 134
111 120 126 116 113 114 114 111 112 115 118 123 127 133 136 139 141 143 146 147 150 151 153 154 153 150 146 144 143 140 140 139 142 140 134 130 134 135 138 138 138 137 137
114 119 128 123 120 116 114 112 112 114 117 120 125 128 134 139 144 146 149 152 152 155 158 158 157 155 150 148 146 142 142 143 143 136 127 130 135 140 145 146 144 144 145
97 109 136 130 126 120 117 116 116 116 116 119 123 126 132 134 139 145 150 150 152 156 159 159 157 155 150 146 144 143 145 147 145 138 132 137 142 153 156 156 151 151 155
106 120 143 135 129 123 121 119 118 117 117 119 121 123 127 131 136 139 146 150 153 155 156 157 155 152 146 143 139 141 144 145 141 139 139 149 161 171 169 167 163 161 162
115 120 140 136 131 127 125 123 123 121 120 119 118 118 122 128 135 138 145 148 152 153 153 150 145 145 144 140 139 142 145 147 138 135 143 162 178 181 179 176 173 174 172
125 121 131 142 134 131 130 127 124 122 122 122 119 116 117 119 127 135 144 151 154 156 156 153 149 149 146 144 147 153 151 149 141 145 156 176 188 186 185 182 183 188 184
100 102 98 129 136 135 129 123 122 120 118 117 114 111 111 113 118 125 134 140 143 151 155 157 153 154 152 155 155 158 160 161 147 152 174 192 198 196 196 194 193 197 189
91 88 88 92 108 119 125 132 129 121 116 114 112 107 106 107 110 111 116 128 135 137 142 145 145 149 151 158 162 163 166 169 150 163 182 209 212 206 200 194 193 191 181
117 101 101 107 110 118 133 139 124 113 109 107 106 104 97 89 94 100 108 115 119 123 130 135 138 138 134 140 153 155 149 143 146 174 196 215 214 210 204 197 193 183 181
169 167 149 148 139 126 146 126 103 100 90 91 94 98 94 88 88 96 104 105 103 104 103 112 123 115 112 110 119 126 133 140 147 185 205 218 220 216 208 207 207 199 199
180 177 167 169 157 144 149 129 110 108 102 100 103 103 102 96 88 81 88 94 88 86 82 84 86 95 101 106 107 123 144 147 168 207 214 214 221 223 217 216 216 210 207
158 181 173 170 166 177 169 145 123 122 121 120 118 117 118 107 89 83 88 94 92 92 89 90 98 100 108 121 136 152 154 167 184 220 226 227 229 226 227 226 222 216 214
163 179 175 169 179 185 170 172 143 142 141 133 121 126 134 127 112 112 114 109 108 111 107 96 97 110 126 143 170 169 172 185 211 229 238 243 241 233 235 233 228 223 218
173 176 168 165 171 169 163 156 153 151 146 128 134 141 136 141 145 133 117 101 103 112 111 110 114 124 142 150 202 189 199 212 218 234 240 245 244 239 244 240 237 230 225
169 164 159 156 151 156 156 154 155 151 142 145 156 150 144 152 149 142 127 101 95 107 101 83 75 87 99 118 205 238 217 224 220 236 250 255 254 246 246 246 242 236 234
156 154 160 152 143 148 144 141 146 147 142 152 147 140 146 158 150 140 132 122 98 99 96 79 45 46 67 67 279 271 245 236 236 243 251 253 249 245 248 248 247 242 243
161 155 148 138 136 140 134 126 123 121 126 130 128 134 142 153 150 141 135 118 103 97 90 86 68 54 136 287 277 267 255 243 242 242 245 249 244 242 242 249 249 249 250
158 153 148 140 134 131 124 110 98 93 94 100 104 114 125 133 137 136 130 115 106 103 81 71 77 63 259 260 294 308 291 257 245 245 252 255 251 246 242 248 251 249 247
154 155 159 150 143 131 120 121 121 119 105 98 126 124 147 147 142 140 143 126 127 160 192 165 131 97 353 136 49 343 335 315 257 254 254 253 264 257 250 246 244 241 242
174 176 173 164 155 152 149 142 138 133 136 144 113 77 143 162 164 166 162 166 168 185 218 200 147 148 255 106 119 49 341 343 352 303 274 256 267 268 263 255 246 238 240
191 187 182 172 163 161 150 124 103 84 66 65 45 346 327 155 167 172 167 172 183 187 214 223 198 182 213 252 182 158 159 274 318 327 303 285 287 274 270 262 257 249 245
196 179 164 158 154 155 151 150 155 163 180 201 193 206 268 136 171 176 166 173 188 189 208 225 201 193 183 226 244 211 199 188 214 313 320 309 299 284 279 277 270 258 253
179 166 161 152 150 143 145 156 161 175 182 163 143 149 217 292 227 197 185 180 193 205 213 213 187 188 191 199 207 203 191 192 202 216 286 312 320 297 284 280 278 272 264
157 157 156 155 163 158 158 164 170 179 173 166 181 191 240 281 296 265 203 193 204 210 216 217 207 202 210 206 207 205 191 193 205 205 235 271 295 299 304 290 280 276 274
Height
1495 1494 1493 1493 1492 1493 1493 1492 1490 1489 1490 1494 1499 1503 1506 1509 1511 1513 1515 1516 1518 1520 1522 1524 1525 1527 1528 1530 1532 1533 1535 1536 1538 1539 1540 1541 1542 1543 1544 1545 1546 1547 1548
1496 1496 1495 1495 1494 1495 1495 1493 1491 1490 1492 1495 1500 1505 1508 1510 1512 1514 1515 1517 1519 1521 1522 1524 1526 1528 1529 1531 1532 1534 1536 1537 1539 1540 1541 1542 1543 1544 1545 1546 1547 1547 1548
1498 1497 1498 1498 1497 1498 1498 1497 1495 1495 1496 1500 1504 1507 1509 1511 1513 1515 1516 1518 1520 1521 1523 1525 1526 1528 1529 1531 1533 1534 1536 1538 1540 1541 1542 1543 1544 1545 1546 1546 1547 1548 1549
1500 1500 1500 1500 1500 1501 1501 1500 1500 1501 1502 1504 1507 1509 1511 1512 1514 1515 1517 1519 1520 1522 1524 1525 1527 1528 1530 1532 1533 1535 1537 1538 1540 1541 1542 1543 1544 1545 1546 1547 1548 1549 1549
1501 1502 1502 1503 1503 1503 1504 1504 1505 1505 1506 1508 1509 1511 1512 1513 1514 1516 1517 1519 1521 1522 1524 1525 1527 1529 1531 1532 1534 1536 1537 1539 1540 1542 1543 1544 1545 1546 1547 1547 1548 1549 1550
1503 1504 1505 1505 1506 1506 1507 1507 1508 1509 1510 1511 1512 1513 1513 1514 1515 1516 1517 1519 1521 1523 1524 1526 1527 1529 1531 1532 1534 1536 1538 1539 1541 1542 1543 1544 1545 1546 1547 1547 1548 1549 1550
1506 1506 1507 1508 1509 1509 1510 1510 1511 1512 1512 1513 1514 1514 1515 1515 1516 1517 1518 1519 1521 1523 1525 1527 1528 1530 1531 1533 1535 1537 1538 1540 1541 1542 1543 1544 1545 1546 1547 1547 1548 1549 1550
1508 1508 1509 1510 1511 1512 1512 1513 1514 1514 1515 1516 1516 1516 1517 1517 1517 1518 1519 1520 1522 1524 1526 1527 1529 1530 1531 1533 1535 1537 1538 1540 1541 1542 1544 1545 1545 1546 1547 1547 1548 1548 1549
1510 1510 1511 1512 1513 1514 1515 1515 1516 1517 1517 1518 1518 1518 1519 1519 1519 1519 1520 1521 1523 1525 1526 1528 1529 1531 1532 1534 1536 1537 1538 1540 1541 1542 1544 1544 1545 1546 1546 1547 1547 1548 1548
1511 1512 1513 1514 1515 1516 1517 1518 1518 1519 1519 1520 1520 1520 1521 1521 1522 1522 1522 1523 1525 1526 1527 1529 1530 1532 1533 1534 1536 1537 1539 1540 1541 1542 1543 1544 1545 1545 1546 1546 1546 1547 1547
1512 1513 1514 1515 1517 1518 1518 1519 1520 1521 1521 1522 1522 1523 1523 1524 1524 1524 1525 1526 1526 1527 1529 1530 1531 1533 1534 1535 1536 1537 1538 1540 1541 1542 1543 1543 1544 1544 1545 1545 1545 1546 1546
1513 1514 1515 1517 1518 1519 1520 1521 1522 1522 1523 1524 1524 1525 1525 1526 1526 1527 1527 1528 1529 1529 1530 1531 1533 1534 1535 1536 1537 1538 1538 1539 1540 1541 1542 1543 1543 1543 1544 1544 1544 1545 1545
1514 1515 1516 1518 1519 1520 1521 1522 1523 1524 1525 1525 1526 1526 1527 1527 1528 1528 1529 1529 1530 1531 1531 1532 1533 1534 1535 1536 1537 1538 1538 1539 1540 1541 1541 1542 1542 1542 1543 1543 1543 1544 1544
1515 1516 1517 1519 1520 1521 1522 1523 1524 1525 1526 1527 1527 1528 1528 1529 1529 1530 1530 1531 1531 1532 1532 1533 1534 1535 1536 1536 1537 1537 1538 1539 1539 1540 1540 1541 1541 1541 1541 1542 1542 1542 1543
1515 1517 1518 1519 1520 1522 1523 1524 1525 1526 1527 1528 1529 1529 1530 1530 1531 1531 1532 1532 1533 1533 1533 1534 1535 1536 1536 1537 1537 1538 1538 1539 1539 1539 1540 1540 1540 1540 1540 1541 1541 1541 1541
1516 1518 1519 1520 1521 1522 1523 1525 1526 1527 1528 1529 1530 1530 1531 1531 1532 1532 1532 1533 1533 1534 1534 1535 1535 1536 1536 1536 1537 1537 1538 1538 1538 1539 1539 1539 1539 1539 1539 1540 1540 1540 1540
1517 1518 1520 1520 1521 1522 1524 1525 1527 1528 1529 1530 1531 1531 1532 1532 1533 1533 1533 1534 1534 1535 1535 1535 1535 1535 1536 1536 1536 1537 1537 1537 1538 1538 1538 1538 1538 1538 1538 1538 1539 1539 1539
1518 1519 1520 1521 1522 1523 1524 1526 1528 1529 1530 1531 1531 1532 1533 1533 1534 1534 1534 1534 1535 1535 1535 1535 1535 1535 1535 1536 1536 1536 1537 1537 1537 1537 1537 1537 1537 1537 1537 1537 1537 1537 1538
1519 1520 1521 1522 1523 1524 1526 1527 1528 1529 1530 1531 1532 1532 1533 1534 1534 1534 1534 1535 1535 1535 1535 1535 1536 1536 1535 1536 1536 1536 1536 1536 1536 1536 1536 1536 1536 1536 1536 1536 1536 1536 1536
1520 1521 1522 1523 1524 1525 1527 1528 1529 1530 1530 1531 1532 1532 1533 1534 1534 1534 1535 1535 1535 1535 1535 1535 1536 1536 1535 1535 1535 1535 1535 1535 1535 1535 1535 1534 1534 1534 1534 1534 1534 1534 1534
1520 1521 1522 1523 1524 1526 1527 1528 1529 1529 1530 1531 1532 1532 1533 1533 1534 1534 1534 1534 1535 1535 1535 1535 1535 1535 1535 1534 1534 1534 1534 1534 1534 1533 1533 1533 1533 1533 1533 1533 1533 1533 1532
1519 1521 1522 1524 1525 1526 1527 1528 1529 1530 1530 1531 1531 1532 1532 1533 1533 1533 1534 1534 1534 1534 1534 1534 1534 1534 1534 1534 1534 1533 1532 1533 1532 1532 1532 1532 1532 1531 1531 1531 1531 1531 1531
1518 1520 1522 1523 1525 1526 1527 1528 1529 1529 1529 1530 1530 1531 1532 1532 1532 1533 1533 1533 1533 1533 1533 1533 1533 1533 1533 1533 1533 1533 1532 1531 1531 1531 1531 1531 1530 1530 1530 1530 1529 1529 1529
1516 1519 1520 1522 1524 1525 1526 1527 1528 1528 1528 1529 1530 1530 1531 1531 1532 1532 1532 1532 1532 1532 1532 1532 1532 1532 1532 1532 1532 1531 1532 1531 1531 1530 1530 1530 1529 1529 1528 1528 1528 1527 1527
1515 1517 1519 1521 1523 1524 1525 1525 1526 1527 1528 1528 1529 1529 1530 1530 1530 1530 1531 1531 1531 1531 1531 1531 1531 1530 1530 1530 1530 1530 1530 1530 1529 1529 1528 1528 1527 1527 1527 1526 1526 1525 1525
1514 1516 1518 1520 1521 1523 1524 1525 1525 1526 1527 1527 1528 1528 1528 1529 1529 1529 1529 1529 1529 1530 1530 1529 1529 1529 1529 1529 1529 1528 1528 1528 1527 1527 1526 1525 1525 1525 1525 1524 1524 1523 1522